TimeCDT,TemperatureF,Dew PointF,Humidity,Sea Level PressureIn,VisibilityMPH,Wind Direction,Wind SpeedMPH,Gust SpeedMPH,PrecipitationIn,Events,Conditions,WindDirDegrees,DateUTC
1:53 AM,37.9,21.0,51,30.27,10.0,ESE,9.2,-,N/A,,Clear,120,2012-10-28 06:53:00
2:53 AM,37.0,21.9,54,30.27,10.0,ESE,9.2,-,N/A,,Clear,120,2012-10-28 07:53:00
3:53 AM,34.0,21.9,61,30.27,10.0,Variable,4.6,-,N/A,,Clear,0,2012-10-28 08:53:00
4:53 AM,34.0,21.9,61,30.27,10.0,SE,6.9,-,N/A,,Clear,130,2012-10-28 09:53:00
5:53 AM,34.0,21.9,61,30.28,10.0,SE,8.1,-,N/A,,Clear,130,2012-10-28 10:53:00
6:53 AM,35.1,21.9,59,30.30,10.0,ESE,9.2,-,N/A,,Clear,120,2012-10-28 11:53:00
7:53 AM,30.9,21.9,69,30.31,10.0,SE,10.4,-,N/A,,Clear,130,2012-10-28 12:53:00
8:53 AM,39.0,27.0,62,30.31,10.0,SE,8.1,-,N/A,,Clear,130,2012-10-28 13:53:00
9:53 AM,45.0,24.1,44,30.31,10.0,SSE,6.9,-,N/A,,Clear,150,2012-10-28 14:53:00
10:53 AM,48.9,21.9,35,30.32,10.0,SSW,6.9,-,N/A,,Clear,200,2012-10-28 15:53:00
11:53 AM,51.1,23.0,33,30.31,10.0,South,9.2,-,N/A,,Clear,190,2012-10-28 16:53:00
12:53 PM,55.0,24.1,30,30.28,10.0,SSW,9.2,-,N/A,,Clear,200,2012-10-28 17:53:00
1:53 PM,57.9,24.1,27,30.25,10.0,South,9.2,-,N/A,,Clear,190,2012-10-28 18:53:00
2:53 PM,60.1,25.0,26,30.21,10.0,South,6.9,-,N/A,,Clear,180,2012-10-28 19:53:00
3:53 PM,60.1,24.1,25,30.20,10.0,SSE,12.7,17.3,N/A,,Clear,160,2012-10-28 20:53:00
4:53 PM,60.1,24.1,25,30.19,10.0,South,9.2,-,N/A,,Clear,170,2012-10-28 21:53:00
5:53 PM,57.0,25.0,29,30.19,10.0,South,10.4,-,N/A,,Clear,170,2012-10-28 22:53:00
6:53 PM,52.0,26.1,37,30.19,10.0,SSE,10.4,-,N/A,,Clear,160,2012-10-28 23:53:00
7:53 PM,46.0,26.1,46,30.22,10.0,South,9.2,-,N/A,,Clear,180,2012-10-29 00:53:00
8:53 PM,46.9,27.0,46,30.23,10.0,South,10.4,-,N/A,,Clear,170,2012-10-29 01:53:00
9:53 PM,48.0,28.0,46,30.21,10.0,SSE,12.7,-,N/A,,Clear,150,2012-10-29 02:53:00
10:53 PM,45.0,28.9,53,30.23,10.0,SSE,12.7,-,N/A,,Clear,150,2012-10-29 03:53:00
11:53 PM,44.1,28.9,55,30.23,10.0,SE,12.7,-,N/A,,Clear,140,2012-10-29 04:53:00